| time (UTC) | temp F | wind direction | speed MPH | gust MPH | rain 1hr in | rain 24hr in | rain mn in | humidity % | barometer mb |
| 20260505210051 | 81 | 218 | 2.0 | 17.0 | 0.00 | 0.01 | 0.01 | 37 | 1007.3 |
| 20260505204559 | 82 | 257 | 3.0 | 12.0 | 0.00 | 0.01 | 0.01 | 36 | 1007.2 |
| 20260505203048 | 82 | 207 | 4.0 | 10.0 | 0.00 | 0.01 | 0.01 | 36 | 1007.5 |
| 20260505201543 | 82 | 141 | 4.0 | 20.0 | 0.00 | 0.01 | 0.01 | 34 | 1007.2 |
| 20260505200041 | 82 | 291 | 3.0 | 10.0 | 0.00 | 0.01 | 0.01 | 33 | 1007.4 |
| 20260505194548 | 82 | 75 | 4.0 | 13.0 | 0.00 | 0.01 | 0.01 | 35 | 1007.5 |
| 20260505193040 | 83 | 294 | 2.0 | 10.0 | 0.00 | 0.01 | 0.01 | 33 | 1007.7 |
| 20260505191547 | 83 | 224 | 3.0 | 7.0 | 0.00 | 0.01 | 0.01 | 35 | 1007.6 |
| 20260505190044 | 82 | 148 | 3.0 | 11.0 | 0.00 | 0.01 | 0.01 | 36 | 1007.9 |
| 20260505184548 | 81 | 235 | 5.0 | 13.0 | 0.00 | 0.01 | 0.01 | 35 | 1008.0 |
| 20260505183041 | 80 | 275 | 4.0 | 11.0 | 0.00 | 0.01 | 0.01 | 38 | 1008.1 |
| 20260505181643 | 81 | 253 | 3.0 | 12.0 | 0.00 | 0.01 | 0.01 | 38 | 1008.4 |
| 20260505174552 | 81 | 318 | 2.0 | 9.0 | 0.00 | 0.01 | 0.01 | 40 | 1008.9 |
| 20260505173049 | 80 | 273 | 5.0 | 12.0 | 0.00 | 0.01 | 0.01 | 41 | 1009.0 |
| 20260505171559 | 80 | 283 | 4.0 | 10.0 | 0.00 | 0.01 | 0.01 | 43 | 1009.0 |
| 20260505170049 | 80 | 2 | 4.0 | 13.0 | 0.00 | 0.01 | 0.01 | 40 | 1009.4 |
| 20260505164542 | 79 | 226 | 4.0 | 13.0 | 0.00 | 0.01 | 0.01 | 43 | 1009.7 |
| 20260505163043 | 79 | 165 | 4.0 | 11.0 | 0.00 | 0.01 | 0.01 | 45 | 1009.8 |
| 20260505161550 | 78 | 285 | 5.0 | 9.0 | 0.00 | 0.01 | 0.01 | 47 | 1009.9 |
| 20260505153045 | 75 | 249 | 3.0 | 17.0 | 0.00 | 0.01 | 0.01 | 54 | 1010.3 |
| 20260505151551 | 74 | 107 | 3.0 | 8.0 | 0.00 | 0.01 | 0.01 | 51 | 1010.6 |
| 20260505124551 | 59 | 335 | 0.0 | 3.0 | 0.00 | 0.01 | 0.01 | 83 | 1011.1 |
| 20260505123057 | 56 | 0 | 0.0 | 2.0 | 0.00 | 0.01 | 0.01 | 93 | 1011.1 |
| 20260505121546 | 54 | 0 | 0.0 | 1.0 | 0.00 | 0.01 | 0.01 | 95 | 1011.2 |
| 20260505120103 | 53 | 0 | 0.0 | 0.0 | 0.00 | 0.01 | 0.01 | 95 | 1011.0 |
| 20260505114552 | 53 | 0 | 0.0 | 1.0 | 0.00 | 0.01 | 0.01 | 95 | 1010.9 |
| 20260505113048 | 52 | 0 | 0.0 | 1.0 | 0.00 | 0.01 | 0.01 | 95 | 1011.1 |
| 20260505111544 | 52 | 0 | 0.0 | 1.0 | 0.00 | 0.01 | 0.01 | 94 | 1011.0 |
| 20260505110108 | 52 | 0 | 0.0 | 0.0 | 0.00 | 0.01 | 0.01 | 94 | 1010.8 |
| 20260505101546 | 53 | 0 | 0.0 | 1.0 | 0.01 | 0.01 | 0.01 | 91 | 1010.0 |
| 20260505100043 | 53 | 0 | 0.0 | 3.0 | 0.01 | 0.01 | 0.01 | 91 | 1009.8 |
| 20260505094541 | 53 | 21 | 1.0 | 2.0 | 0.00 | 0.00 | 0.00 | 88 | 1010.2 |
| 20260505093049 | 50 | 0 | 0.0 | 2.0 | 0.00 | 0.00 | 0.00 | 89 | 1011.1 |
| 20260505091552 | 48 | 7 | 0.0 | 1.0 | 0.00 | 0.00 | 0.00 | 89 | 1011.0 |
| 20260505090042 | 48 | 0 | 0.0 | 1.0 | 0.00 | 0.00 | 0.00 | 91 | 1010.7 |
| 20260505084544 | 48 | 0 | 0.0 | 0.0 | 0.00 | 0.00 | 0.00 | 89 | 1010.5 |
| 20260505083104 | 48 | 0 | 0.0 | 0.0 | 0.00 | 0.00 | 0.00 | 89 | 1010.2 |
| 20260505081544 | 48 | 0 | 0.0 | 0.0 | 0.00 | 0.00 | 0.00 | 87 | 1010.1 |
| 20260505080042 | 48 | 0 | 0.0 | 0.0 | 0.00 | 0.00 | 0.00 | 87 | 1010.1 |
| 20260505074548 | 48 | 0 | 0.0 | 0.0 | 0.00 | 0.00 | 0.00 | 87 | 1010.0 |
| 20260505073055 | 48 | 0 | 0.0 | 0.0 | 0.00 | 0.00 | 0.00 | 87 | 1010.1 |
| 20260505071543 | 48 | 0 | 0.0 | 0.0 | 0.00 | 0.00 | 0.00 | 85 | 1010.1 |
| 20260505070101 | 49 | 0 | 0.0 | 1.0 | 0.00 | 0.00 | 0.00 | 86 | 1010.0 |
| 20260505064627 | 48 | 0 | 0.0 | 1.0 | 0.00 | 0.00 | 0.00 | 84 | 1010.0 |
| 20260505063049 | 48 | 0 | 0.0 | 1.0 | 0.00 | 0.00 | 0.00 | 83 | 1010.2 |
| 20260505061549 | 50 | 0 | 0.0 | 0.0 | 0.00 | 0.00 | 0.00 | 81 | 1010.2 |
| 20260505060046 | 51 | 0 | 0.0 | 1.0 | 0.00 | 0.00 | 0.00 | 78 | 1010.3 |
| 20260505054549 | 53 | 22 | 0.0 | 2.0 | 0.00 | 0.00 | 0.00 | 78 | 1010.3 |
| 20260505053052 | 50 | 0 | 0.0 | 1.0 | 0.00 | 0.00 | 0.00 | 84 | 1010.4 |
| 20260505051551 | 48 | 0 | 0.0 | 0.0 | 0.00 | 0.00 | 0.00 | 86 | 1010.4 |
| 20260505041551 | 50 | 0 | 0.0 | 0.0 | 0.00 | 0.00 | 0.00 | 81 | 1010.1 |
| 20260505040100 | 50 | 0 | 0.0 | 0.0 | 0.00 | 0.00 | 0.00 | 80 | 1010.0 |
| 20260505034607 | 51 | 0 | 0.0 | 0.0 | 0.00 | 0.00 | 0.00 | 78 | 1010.0 |
| 20260505033047 | 52 | 0 | 0.0 | 0.0 | 0.00 | 0.00 | 0.00 | 76 | 1010.1 |
| 20260505031550 | 53 | 0 | 0.0 | 1.0 | 0.00 | 0.00 | 0.00 | 73 | 1010.2 |
| 20260505030114 | 53 | 0 | 0.0 | 0.0 | 0.00 | 0.00 | 0.00 | 72 | 1010.4 |
| 20260505024607 | 53 | 0 | 0.0 | 0.0 | 0.00 | 0.00 | 0.00 | 71 | 1010.4 |
| 20260505023050 | 54 | 0 | 0.0 | 0.0 | 0.00 | 0.00 | 0.00 | 70 | 1010.5 |
| 20260505021549 | 56 | 0 | 0.0 | 0.0 | 0.00 | 0.00 | 0.00 | 68 | 1010.5 |
| 20260505020053 | 57 | 0 | 0.0 | 0.0 | 0.00 | 0.00 | 0.00 | 65 | 1010.4 |
| 20260505014549 | 58 | 0 | 0.0 | 1.0 | 0.00 | 0.00 | 0.00 | 63 | 1010.3 |
| 20260505013046 | 59 | 24 | 0.0 | 1.0 | 0.00 | 0.00 | 0.00 | 62 | 1010.2 |
| 20260505011546 | 60 | 0 | 0.0 | 1.0 | 0.00 | 0.00 | 0.00 | 60 | 1010.0 |
| 20260505010107 | 61 | 27 | 0.0 | 3.0 | 0.00 | 0.00 | 0.00 | 58 | 1010.0 |
| 20260505004601 | 62 | 0 | 0.0 | 1.0 | 0.00 | 0.00 | 0.00 | 54 | 1009.7 |
| 20260505003039 | 64 | 27 | 0.0 | 2.0 | 0.00 | 0.00 | 0.00 | 50 | 1009.7 |
| 20260505001544 | 65 | 29 | 0.0 | 3.0 | 0.00 | 0.00 | 0.00 | 47 | 1009.6 |
| 20260505000042 | 66 | 0 | 0.0 | 4.0 | 0.00 | 0.00 | 0.00 | 46 | 1009.4 |
| 20260504234541 | 68 | 0 | 1.0 | 3.0 | 0.00 | 0.00 | 0.00 | 46 | 1009.1 |
| 20260504233040 | 69 | 224 | 0.0 | 4.0 | 0.00 | 0.00 | 0.00 | 41 | 1008.9 |
| 20260504231617 | 70 | 231 | 0.0 | 3.0 | 0.00 | 0.00 | 0.00 | 39 | 1008.8 |
| 20260504230046 | 71 | 221 | 0.0 | 5.0 | 0.00 | 0.00 | 0.00 | 39 | 1008.6 |
| 20260504224547 | 71 | 271 | 1.0 | 8.0 | 0.00 | 0.00 | 0.00 | 37 | 1008.6 |
| 20260504223049 | 72 | 79 | 3.0 | 9.0 | 0.00 | 0.00 | 0.00 | 37 | 1008.7 |
| 20260504221627 | 72 | 276 | 3.0 | 9.0 | 0.00 | 0.00 | 0.00 | 36 | 1008.6 |
| 20260504220049 | 72 | 219 | 1.0 | 11.0 | 0.00 | 0.00 | 0.00 | 36 | 1008.8 |
| 20260504214555 | 73 | 190 | 1.0 | 5.0 | 0.00 | 0.00 | 0.00 | 37 | 1008.9 |
| 20260504213054 | 72 | 203 | 3.0 | 10.0 | 0.00 | 0.00 | 0.00 | 37 | 1008.9 |
| 20260504211550 | 73 | 264 | 4.0 | 9.0 | 0.00 | 0.00 | 0.00 | 35 | 1009.0 |